Weather History for Doha, Qatar

Change the Weather History Date:

Tuesday, August 19, 2014

  Actual Average Record
Temperature  
Mean Temperature 100 °F -  
Max Temperature 106 °F 102 °F 111 °F (1999)
Min Temperature 93 °F 81 °F 80 °F (1997)
Cooling Degree Days 34    
Growing Degree Days 50 (Base 50)    
Moisture  
Dew Point 82 °F    
Average Humidity 60    
Maximum Humidity 79    
Minimum Humidity 27    
Precipitation  
Precipitation 0.00 in 0.00 in - ()
Sea Level Pressure  
Sea Level Pressure 29.68 in    
Wind  
Wind Speed 10 mph ()    
Max Wind Speed 18 mph    
Max Gust Speed -    
Visibility 5.6 miles    
Events      
Averages and records for this station are not official NWS values.
T = Trace of Precipitation, MM = Missing Value Source: Averaged Metar Reports

Daily Weather History Graph

Daily Weather History Graph

Search for Another Location

Airport:

Trip Planner

Search our weather history database for the weather conditions in past years. The results will help you decide how hot, cold, wet, or windy it might be!

Date:

Astronomy

Aug. 19, 2014 Rise Set
Actual Time 5:08 AM AST 6:05 PM AST
Civil Twilight 4:45 AM AST 6:29 PM AST
Nautical Twilight 4:17 AM AST 6:57 PM AST
Astronomical Twilight 3:48 AM AST 7:25 PM AST
Moon No Moon Rise 1:31 PM AST (8/19)
Length of Visible Light 13h 44m
Length of Day
12h 56m
Waning Crescent, 32% of the Moon is Illuminated
Aug 19
Waning Crescent
Aug 25
New
Sep 2
First Quarter
Sep 9
Full
Sep 16
Last Quarter

Hourly Weather History & Observations

Time (AST) Temp. Heat Index Dew Point Humidity Pressure Visibility Wind Dir Wind Speed Gust Speed Precip Events Conditions
12:00 AM 94 °F - 85 °F 70% 29.68 in 5 mi ENE 9.2 mph - -   Haze
12:00 AM 93.2 °F 124.9 °F 86.0 °F 79% 29.68 in 5.0 mi ENE 9.2 mph - N/A   Unknown
1:30 AM 93.2 °F 124.9 °F 86.0 °F 79% 29.65 in 5.0 mi East 8.1 mph - N/A   Unknown
2:00 AM 93.2 °F 120.9 °F 84.2 °F 75% 29.65 in 5.0 mi East 10.4 mph - N/A   Unknown
3:00 AM 94 °F - 84 °F 67% 29.67 in 5 mi East 9.2 mph - -   Haze
3:00 AM 95.0 °F 123.7 °F 84.2 °F 71% 29.65 in 5.0 mi East 9.2 mph - N/A   Unknown
4:00 AM 93.2 °F 124.9 °F 86.0 °F 79% 29.68 in 5.0 mi East 11.5 mph - N/A   Unknown
6:00 AM 94 °F - 86 °F 73% 29.71 in 4 mi East 12.7 mph - -   Haze
6:00 AM 93.2 °F 124.9 °F 86.0 °F 79% 29.68 in 4.3 mi East 12.7 mph - N/A   Unknown
7:00 AM 95.0 °F 128.0 °F 86.0 °F 75% 29.71 in 5.0 mi ESE 11.5 mph - N/A   Unknown
7:30 AM 96.8 °F 130.7 °F 86.0 °F 71% 29.71 in 5.0 mi ESE 12.7 mph - N/A   Unknown
8:00 AM 98.6 °F 132.9 °F 86.0 °F 67% 29.71 in 5.6 mi ESE 13.8 mph - N/A   Unknown
8:30 AM 98.6 °F 132.9 °F 86.0 °F 67% 29.71 in - ESE 13.8 mph - N/A   Clear
9:00 AM 101 °F - 83 °F 49% 29.74 in 6 mi ESE 13.8 mph - -  
9:00 AM 100.4 °F 130.9 °F 84.2 °F 60% 29.71 in - ESE 13.8 mph - N/A   Clear
9:30 AM 102.2 °F 121.5 °F 78.8 °F 47% 29.71 in - SE 15.0 mph - N/A   Clear
10:00 AM 102.2 °F 121.5 °F 78.8 °F 47% 29.71 in - SE 12.7 mph - N/A   Clear
10:30 AM 102.2 °F 121.5 °F 78.8 °F 47% 29.71 in - SSE 10.4 mph - N/A   Clear
11:00 AM 104.0 °F 118.9 °F 75.2 °F 40% 29.71 in - SSE 10.4 mph - N/A   Clear
11:30 AM 104.0 °F 118.9 °F 75.2 °F 40% 29.71 in - SE 12.7 mph - N/A   Clear
12:00 PM 105 °F - 73 °F 27% 29.71 in 9 mi ESE 13.8 mph - -  
12:00 PM 105.8 °F 119.1 °F 73.4 °F 36% 29.71 in - ESE 13.8 mph - N/A   Clear
12:30 PM 105.8 °F 116.1 °F 71.6 °F 33% 29.68 in - ESE 12.7 mph - N/A   Clear
1:00 PM 104.0 °F 121.0 °F 77.0 °F 42% 29.68 in - ESE 12.7 mph - N/A   Clear
1:30 PM 104.0 °F 118.9 °F 75.2 °F 40% 29.68 in - East 12.7 mph - N/A   Clear
2:00 PM 104.0 °F 116.8 °F 73.4 °F 38% 29.68 in - East 13.8 mph - N/A   Clear
3:00 PM 100 °F - 80 °F 44% 29.68 in 9 mi East 17.3 mph - -   Scattered Clouds
3:00 PM 100.4 °F 122.7 °F 80.6 °F 53% 29.65 in - East 17.3 mph - N/A   Clear
4:00 PM 98.6 °F 117.2 °F 78.8 °F 53% 29.65 in - East 18.4 mph - N/A   Clear
4:30 PM 98.6 °F 124.6 °F 82.4 °F 60% 29.65 in - East 18.4 mph - N/A   Clear
5:00 PM 96.8 °F 118.6 °F 80.6 °F 60% 29.65 in - East 17.3 mph - N/A   Clear
5:30 PM 96.8 °F 121.7 °F 82.4 °F 63% 29.65 in - East 16.1 mph - N/A   Clear
6:00 PM 96 °F - 83 °F 60% 29.67 in 6 mi East 13.8 mph - -   Scattered Clouds
6:00 PM 96.8 °F 126.0 °F 84.2 °F 67% 29.65 in - East 13.8 mph - N/A   Clear
7:00 PM 95.0 °F 119.6 °F 82.4 °F 67% 29.68 in 5.6 mi East 11.5 mph - N/A   Unknown
7:30 PM 95.0 °F 119.6 °F 82.4 °F 67% 29.68 in 5.6 mi East 6.9 mph - N/A   Unknown
8:00 PM 95.0 °F 119.6 °F 82.4 °F 67% 29.68 in 5.6 mi East 9.2 mph - N/A   Unknown
9:00 PM 96 °F - 84 °F 61% 29.70 in 6 mi ESE 6.9 mph - -  
9:00 PM 95.0 °F 123.7 °F 84.2 °F 71% 29.68 in - ESE 6.9 mph - N/A   Clear
9:30 PM 95.0 °F 123.7 °F 84.2 °F 71% 29.68 in - ESE 5.8 mph - N/A   Clear
10:00 PM 95.0 °F 123.7 °F 84.2 °F 71% 29.68 in 5.6 mi ESE 5.8 mph - N/A   Unknown
10:30 PM 95.0 °F 119.6 °F 82.4 °F 67% 29.68 in - East 5.8 mph - N/A   Clear
11:00 PM 95.0 °F 119.6 °F 82.4 °F 67% 29.68 in - East 4.6 mph - N/A   Clear
11:30 PM 95.0 °F 123.7 °F 84.2 °F 71% 29.68 in - East 3.5 mph - N/A   Clear